Location: Cella
(44.7333°N, 10.5667°E)
Time: 15:12:17
(UTC+00:00)

SAR-Lupe-4 - Pass Details

Date: 03 March 2021
Orbit: 481 x 485 km, 98.2° (Epoch: 26 March)

Event Time Altitude Azimuth Distance (km) Brightness Sun altitude
Rises 18:05:40 0° 15° (NNE) 2,553 7.1 -11.0°
Reaches altitude 10° 18:07:45 10° 18° (NNE) 1,669 6.1 -11.4°
Maximum altitude 18:11:19 70° 102° (ESE) 518 3.4 -12.0°
Drops below altitude 10° 18:14:52 10° 187° (S) 1,656 6.3 -12.6°
Sets 18:16:55 0° 190° (S) 2,531 7.3 -13.0°
